This demonstration page uses our WeatherBlox Daily Observations layout. Learn more.

Left ArrowRight Arrow

Hourly Observations for September 1, 2021

Temp ( °F °C ) Dew Point ( °F °C ) Humidity (%) Winds ( mph kmh ) Pressure ( in mb ) Visibility ( mi km ) Precip ( " mm )
12:53 am 00:53 Clear 68 20 63 17.2 84 84 ESE 12 19 29.83 1010 10 16 0.00 0.00
1:53 am 01:53 Clear 67 19.4 63 17.2 87 87 ESE 9 15 29.83 1010 10 16 0.00 0.00
2:53 am 02:53 Clear 66 18.9 63 17.2 90 90 ESE 8 13 29.83 1010 10 16 0.00 0.00
3:53 am 03:53 Clear 66 18.9 63 17.2 90 90 ESE 10 17 29.83 1010 10 16 0.00 0.00
4:23 am 04:23 Mostly Clear 66 18.9 63 17.2 90 90 E 8 13 29.82 1010 10 16 0.00 0.00
4:53 am 04:53 Mostly Cloudy 66 18.9 63 17.2 90 90 ESE 9 15 29.83 1010 10 16 0.00 0.00
5:53 am 05:53 Cloudy 65 18.3 63 17.2 93 93 ESE 12 19 29.85 1011 10 16 0.00 0.00
6:53 am 06:53 Cloudy 64 17.8 63 17.2 96 96 ESE 9 15 29.86 1011 10 16 0.00 0.00
7:53 am 07:53 Cloudy 64 17.8 62 16.7 93 93 SE 7 11 29.88 1012 10 16 0.00 0.00
8:53 am 08:53 Cloudy 64 17.8 62 16.7 93 93 ESE 13 20 29.88 1012 10 16 0.00 0.00
9:53 am 09:53 Mostly Cloudy 67 19.4 62 16.7 84 84 ESE 14 22 29.89 1012 10 16 0.00 0.00
10:01 am 10:01 Partly Cloudy 67 19.4 62 16.7 84 84 ESE 9 15 29.86 1011 10 16 0.00 0.00
10:53 am 10:53 Mostly Sunny 70 21.1 63 17.2 79 79 ESE 14 22 29.89 1012 10 16 0.00 0.00
11:44 am 11:44 Mostly Cloudy 72 22.2 63 17.2 73 73 SSE 14 22 29.85 1011 10 16 0.00 0.00
11:53 am 11:53 Mostly Cloudy 72 22.2 63 17.2 73 73 SE 14 22 29.89 1012 10 16 0.00 0.00
12:53 pm 12:53 Mostly Cloudy 74 23.3 64 17.8 71 71 ESE 17 28 29.88 1012 10 16 0.00 0.00
1:53 pm 13:53 Mostly Cloudy 76 24.4 65 18.3 69 69 SSE 12 19 29.86 1011 10 16 0.00 0.00
2:03 pm 14:03 Partly Cloudy 77 25 66 18.9 69 69 ESE 14 22 29.81 1010 10 16 0.00 0.00
2:53 pm 14:53 Sunny 78 25.6 66 18.9 67 67 SE 14 22 29.85 1011 10 16 0.00 0.00
3:53 pm 15:53 Mostly Sunny 79 26.1 67 19.4 67 67 SE 16 26 29.84 1011 10 16 0.00 0.00
4:53 pm 16:53 Partly Cloudy 79 26.1 68 20 69 69 SE 13 20 29.83 1010 10 16 0.00 0.00
5:53 pm 17:53 Mostly Sunny 77 25 67 19.4 71 71 SE 17 28 29.84 1011 10 16 0.00 0.00
6:53 pm 18:53 Sunny 76 24.4 68 20 77 77 SE 13 20 29.84 1011 10 16 0.00 0.00
7:53 pm 19:53 Sunny 74 23.3 67 19.4 79 79 SE 12 19 29.85 1011 10 16 0.00 0.00
8:53 pm 20:53 Clear 72 22.2 67 19.4 84 84 SE 13 20 29.86 1011 10 16 0.00 0.00
9:53 pm 21:53 Clear 71 21.7 66 18.9 84 84 SE 17 28 29.86 1011 10 16 0.00 0.00
10:53 pm 22:53 Clear 70 21.1 66 18.9 87 87 SE 12 19 29.86 1011 10 16 0.00 0.00
11:53 pm 23:53 Clear 70 21.1 66 18.9 87 87 SSE 13 20 29.85 1011 10 16 0.00 0.00

Powered by AerisWeather